When you browse on this site, cookies collect data to enhance your experience and personalize the content and advertising you see.
Visit our Privacy Policy to learn more. By continuing to use the site, you agree to this use of cookies and data.
  • In Lithuania
  • List of Countries
  • For 7 days
  • Water Temperature
  • Satellite Maps
  • Weather Map
  • Weather Widgets
  • user-avatar
    Login

    Hourly Weather Gatcha

    Today, 20 April, Saturday

    Time Temperature Precipitation Wind Pressure Humidity
    00:00 +10°C° 0 mm 1 mps 759 mmHg 56%
    01:00 +10°C° 0 mm 1 mps 759 mmHg 57%
    02:00 +10°C° 0 mm 1 mps 759 mmHg 57%
    03:00 +9°C° 0 mm 1 mps 758 mmHg 58%
    04:00 +9°C° 0 mm 1 mps 758 mmHg 59%
    05:00 +8°C° 0 mm 1 mps 758 mmHg 60%
    06:00 +10°C° 0 mm 1 mps 758 mmHg 58%
    07:00 +11°C° 0 mm 1 mps 758 mmHg 57%
    08:00 +13°C° 0 mm 2 mps 758 mmHg 55%
    09:00 +14°C° 0 mm 2 mps 758 mmHg 50%
    10:00 +16°C° 0 mm 2 mps 757 mmHg 45%
    11:00 +17°C° 0 mm 3 mps 757 mmHg 40%
    12:00 +18°C° 0 mm 3 mps 757 mmHg 37%
    13:00 +18°C° 0 mm 3 mps 757 mmHg 35%
    14:00 +18°C° 0 mm 4 mps 756 mmHg 32%
    15:00 +18°C° 0 mm 4 mps 756 mmHg 33%
    16:00 +18°C° 0 mm 4 mps 756 mmHg 34%
    17:00 +17°C° 0 mm 4 mps 755 mmHg 35%
    18:00 +16°C° 0 mm 3 mps 755 mmHg 40%
    19:00 +13°C° 0 mm 3 mps 755 mmHg 46%
    20:00 +12°C° 0 mm 2 mps 755 mmHg 51%
    21:00 +12°C° 0 mm 2 mps 755 mmHg 52%
    22:00 +12°C° 0 mm 2 mps 755 mmHg 53%
    23:00 +12°C° 0 mm 2 mps 755 mmHg 55%

    Tomorrow, 21 April, Sunday

    Time Temperature Precipitation Wind Pressure Humidity
    00:00 +10°C° 0 mm 2 mps 755 mmHg 58%
    01:00 +10°C° 0 mm 2 mps 754 mmHg 61%
    02:00 +9°C° 0 mm 2 mps 754 mmHg 64%
    03:00 +9°C° 0 mm 2 mps 754 mmHg 67%
    04:00 +9°C° 0 mm 2 mps 754 mmHg 69%
    05:00 +9°C° 0 mm 2 mps 754 mmHg 72%
    06:00 +9°C° 0 mm 3 mps 754 mmHg 70%
    07:00 +10°C° 0 mm 3 mps 753 mmHg 68%
    08:00 +10°C° 0 mm 3 mps 753 mmHg 67%
    09:00 +11°C° 0.1 mm 4 mps 753 mmHg 64%
    10:00 +11°C° 0.1 mm 4 mps 753 mmHg 61%
    11:00 +11°C° 0.1 mm 4 mps 753 mmHg 58%
    12:00 +13°C° 0 mm 3 mps 753 mmHg 52%
    13:00 +14°C° 0 mm 3 mps 752 mmHg 47%
    14:00 +16°C° 0 mm 3 mps 752 mmHg 42%
    15:00 +14°C° 0.4 mm 3 mps 752 mmHg 47%
    16:00 +14°C° 0.4 mm 3 mps 751 mmHg 51%
    17:00 +13°C° 0.4 mm 4 mps 751 mmHg 56%
    18:00 +12°C° 0.2 mm 3 mps 751 mmHg 63%
    19:00 +10°C° 0.2 mm 3 mps 751 mmHg 70%
    20:00 +9°C° 0.2 mm 2 mps 751 mmHg 77%
    21:00 +8°C° 0 mm 2 mps 751 mmHg 80%
    22:00 +9°C° 0 mm 1 mps 751 mmHg 83%
    23:00 +8°C° 0 mm 1 mps 751 mmHg 86%

    Day after tomorrow, 22 April, Monday

    Time Temperature Precipitation Wind Pressure Humidity
    00:00 +8°C° 0 mm 1 mps 751 mmHg 87%
    01:00 +7°C° 0 mm 1 mps 751 mmHg 88%
    02:00 +7°C° 0 mm 1 mps 751 mmHg 89%
    03:00 +6°C° 0 mm 2 mps 752 mmHg 90%
    04:00 +6°C° 0 mm 2 mps 752 mmHg 91%
    05:00 +4°C° 0 mm 3 mps 752 mmHg 93%
    06:00 +7°C° 0 mm 3 mps 753 mmHg 89%
    07:00 +7°C° 0 mm 4 mps 753 mmHg 86%
    08:00 +9°C° 0 mm 5 mps 754 mmHg 82%
    09:00 +10°C° 0 mm 6 mps 754 mmHg 74%
    10:00 +11°C° 0 mm 7 mps 755 mmHg 66%
    11:00 +14°C° 0 mm 7 mps 755 mmHg 58%
    12:00 +14°C° 0 mm 7 mps 755 mmHg 53%
    13:00 +15°C° 0 mm 7 mps 755 mmHg 49%
    14:00 +16°C° 0 mm 7 mps 755 mmHg 45%
    15:00 +16°C° 0 mm 7 mps 755 mmHg 46%
    16:00 +15°C° 0 mm 6 mps 755 mmHg 47%
    17:00 +15°C° 0 mm 6 mps 755 mmHg 48%
    18:00 +13°C° 0 mm 6 mps 756 mmHg 50%
    19:00 +12°C° 0 mm 5 mps 756 mmHg 53%
    20:00 +10°C° 0 mm 5 mps 756 mmHg 55%
    21:00 +9°C° 0 mm 5 mps 756 mmHg 56%
    22:00 +8°C° 0 mm 5 mps 756 mmHg 57%
    23:00 +8°C° 0 mm 5 mps 757 mmHg 59%

    23 April, Tuesday

    Time Temperature Precipitation Wind Pressure Humidity
    00:00 +7°C° 0 mm 5 mps 757 mmHg 60%
    01:00 +7°C° 0 mm 5 mps 757 mmHg 61%
    02:00 +7°C° 0 mm 5 mps 757 mmHg 63%
    03:00 +6°C° 0 mm 5 mps 757 mmHg 64%
    04:00 +5°C° 0 mm 6 mps 757 mmHg 65%
    05:00 +5°C° 0 mm 6 mps 756 mmHg 66%
    06:00 +7°C° 0 mm 6 mps 756 mmHg 63%
    07:00 +8°C° 0 mm 7 mps 757 mmHg 60%
    08:00 +10°C° 0 mm 8 mps 757 mmHg 56%
    09:00 +11°C° 0 mm 9 mps 757 mmHg 52%
    10:00 +12°C° 0 mm 9 mps 757 mmHg 48%
    11:00 +13°C° 0 mm 9 mps 756 mmHg 43%
    12:00 +15°C° 0 mm 9 mps 756 mmHg 43%
    13:00 +15°C° 0 mm 9 mps 756 mmHg 42%
    14:00 +16°C° 0 mm 9 mps 755 mmHg 41%
    15:00 +16°C° 0 mm 9 mps 755 mmHg 43%
    16:00 +15°C° 0 mm 8 mps 755 mmHg 45%
    17:00 +15°C° 0 mm 8 mps 754 mmHg 46%
    18:00 +13°C° 0 mm 8 mps 754 mmHg 48%
    19:00 +12°C° 0 mm 7 mps 754 mmHg 50%
    20:00 +11°C° 0 mm 7 mps 754 mmHg 52%
    21:00 +10°C° 0 mm 7 mps 754 mmHg 52%
    22:00 +10°C° 0 mm 7 mps 754 mmHg 53%
    23:00 +10°C° 0 mm 7 mps 754 mmHg 53%

    24 April, Wednesday

    Time Temperature Precipitation Wind Pressure Humidity
    00:00 +10°C° 0 mm 7 mps 754 mmHg 55%
    01:00 +9°C° 0 mm 7 mps 754 mmHg 56%
    02:00 +9°C° 0 mm 7 mps 754 mmHg 57%
    03:00 +9°C° 0 mm 7 mps 754 mmHg 57%
    04:00 +8°C° 0 mm 7 mps 754 mmHg 56%
    05:00 +7°C° 0 mm 8 mps 754 mmHg 55%
    06:00 +9°C° 0 mm 8 mps 754 mmHg 56%
    07:00 +8°C° 0 mm 9 mps 754 mmHg 56%
    08:00 +10°C° 0 mm 9 mps 754 mmHg 56%
    09:00 +11°C° 0 mm 9 mps 754 mmHg 54%
    10:00 +13°C° 0 mm 10 mps 754 mmHg 52%
    11:00 +14°C° 0 mm 10 mps 754 mmHg 50%
    12:00 +16°C° 0 mm 10 mps 754 mmHg 49%
    13:00 +17°C° 0 mm 9 mps 753 mmHg 48%
    14:00 +18°C° 0 mm 9 mps 753 mmHg 47%
    15:00 +18°C° 0 mm 9 mps 753 mmHg 49%
    16:00 +17°C° 0 mm 8 mps 753 mmHg 51%
    17:00 +17°C° 0 mm 8 mps 753 mmHg 53%
    18:00 +16°C° 0 mm 7 mps 753 mmHg 55%
    19:00 +15°C° 0 mm 7 mps 753 mmHg 57%
    20:00 +14°C° 0 mm 6 mps 753 mmHg 59%
    21:00 +14°C° 0 mm 6 mps 753 mmHg 61%
    22:00 +13°C° 0 mm 6 mps 753 mmHg 62%
    23:00 +13°C° 0 mm 6 mps 753 mmHg 63%

    25 April, Thursday

    Time Temperature Precipitation Wind Pressure Humidity
    00:00 +12°C° 0 mm 5 mps 753 mmHg 66%
    01:00 +12°C° 0 mm 5 mps 753 mmHg 68%
    02:00 +10°C° 0 mm 5 mps 753 mmHg 70%
    03:00 +10°C° 0 mm 5 mps 753 mmHg 71%
    04:00 +10°C° 0 mm 5 mps 753 mmHg 72%
    05:00 +9°C° 0 mm 5 mps 753 mmHg 73%
    06:00 +10°C° 0 mm 5 mps 753 mmHg 73%
    07:00 +12°C° 0 mm 5 mps 753 mmHg 72%
    08:00 +13°C° 0 mm 5 mps 753 mmHg 72%
    09:00 +15°C° 0 mm 6 mps 753 mmHg 68%
    10:00 +16°C° 0 mm 6 mps 753 mmHg 64%
    11:00 +19°C° 0 mm 6 mps 753 mmHg 61%
    12:00 +20°C° 0 mm 6 mps 752 mmHg 58%
    13:00 +21°C° 0 mm 7 mps 752 mmHg 55%
    14:00 +22°C° 0 mm 7 mps 752 mmHg 52%
    15:00 +22°C° 0 mm 6 mps 752 mmHg 53%
    16:00 +22°C° 0 mm 6 mps 751 mmHg 53%
    17:00 +22°C° 0 mm 6 mps 751 mmHg 53%
    18:00 +20°C° 0 mm 6 mps 751 mmHg 58%
    19:00 +19°C° 0 mm 5 mps 751 mmHg 62%
    20:00 +16°C° 0 mm 5 mps 751 mmHg 66%
    21:00 +15°C° 0 mm 5 mps 751 mmHg 67%
    22:00 +15°C° 0 mm 4 mps 751 mmHg 68%
    23:00 +14°C° 0 mm 4 mps 751 mmHg 70%
    Show more